When you browse on this site, cookies collect data to enhance your experience and personalize the content and advertising you see.
Visit our Privacy Policy to learn more. By continuing to use the site, you agree to this use of cookies and data.
  • Em Portugal
  • Lista de países
  • Para 7 dias
  • Temperatura da água
  • Mapas de satélite
  • Mapa do tempo
  • Widgets de tempo
  • user-avatar
    Iniciar Sessão

    Previsão horária em Ali Bayramli

    Hoje, 20 Julho, Sábado

    Tempo Temperatura Precipitação Vento Pressão Humidade
    00:00 +29°C° 0 mm 3 m/s 757 mmHg 50%
    01:00 +28°C° 0 mm 3 m/s 757 mmHg 51%
    02:00 +28°C° 0 mm 2 m/s 756 mmHg 53%
    03:00 +27°C° 0 mm 2 m/s 756 mmHg 54%
    04:00 +28°C° 0 mm 2 m/s 757 mmHg 51%
    05:00 +28°C° 0 mm 2 m/s 758 mmHg 49%
    06:00 +29°C° 0 mm 2 m/s 758 mmHg 46%
    07:00 +31°C° 0 mm 2 m/s 758 mmHg 40%
    08:00 +34°C° 0 mm 2 m/s 758 mmHg 34%
    09:00 +36°C° 0 mm 2 m/s 758 mmHg 28%
    10:00 +37°C° 0 mm 3 m/s 758 mmHg 25%
    11:00 +39°C° 0 mm 3 m/s 758 mmHg 23%
    12:00 +40°C° 0 mm 3 m/s 758 mmHg 20%
    13:00 +41°C° 0 mm 4 m/s 758 mmHg 20%
    14:00 +42°C° 0 mm 6 m/s 758 mmHg 20%
    15:00 +43°C° 0 mm 7 m/s 757 mmHg 20%
    16:00 +41°C° 0 mm 8 m/s 757 mmHg 21%
    17:00 +40°C° 0 mm 9 m/s 758 mmHg 22%
    18:00 +38°C° 0 mm 10 m/s 758 mmHg 24%
    19:00 +37°C° 0 mm 9 m/s 758 mmHg 26%
    20:00 +35°C° 0 mm 8 m/s 758 mmHg 29%
    21:00 +34°C° 0 mm 7 m/s 758 mmHg 32%
    22:00 +33°C° 0 mm 6 m/s 758 mmHg 35%
    23:00 +32°C° 0 mm 5 m/s 759 mmHg 37%

    Amanhã, 21 Julho, Domingo

    Tempo Temperatura Precipitação Vento Pressão Humidade
    00:00 +30°C° 0 mm 4 m/s 759 mmHg 40%
    01:00 +30°C° 0 mm 4 m/s 758 mmHg 42%
    02:00 +29°C° 0 mm 3 m/s 758 mmHg 45%
    03:00 +28°C° 0 mm 3 m/s 758 mmHg 47%
    04:00 +29°C° 0 mm 3 m/s 758 mmHg 46%
    05:00 +29°C° 0 mm 3 m/s 758 mmHg 44%
    06:00 +30°C° 0 mm 3 m/s 758 mmHg 42%
    07:00 +33°C° 0 mm 3 m/s 758 mmHg 37%
    08:00 +35°C° 0 mm 3 m/s 758 mmHg 31%
    09:00 +37°C° 0 mm 4 m/s 758 mmHg 25%
    10:00 +40°C° 0 mm 5 m/s 758 mmHg 24%
    11:00 +41°C° 0 mm 6 m/s 758 mmHg 22%
    12:00 +43°C° 0 mm 7 m/s 757 mmHg 20%
    13:00 +43°C° 0 mm 7 m/s 757 mmHg 21%
    14:00 +41°C° 0 mm 7 m/s 756 mmHg 23%
    15:00 +41°C° 0 mm 8 m/s 755 mmHg 24%
    16:00 +40°C° 0 mm 7 m/s 755 mmHg 28%
    17:00 +38°C° 0 mm 7 m/s 755 mmHg 32%
    18:00 +36°C° 0 mm 7 m/s 755 mmHg 37%
    19:00 +34°C° 0 mm 6 m/s 755 mmHg 43%
    20:00 +32°C° 0 mm 5 m/s 756 mmHg 49%
    21:00 +29°C° 0 mm 4 m/s 756 mmHg 56%
    22:00 +29°C° 0 mm 4 m/s 756 mmHg 57%
    23:00 +29°C° 0 mm 4 m/s 756 mmHg 58%

    Depois de amanhã, 22 Julho, Segunda-feira

    Tempo Temperatura Precipitação Vento Pressão Humidade
    00:00 +28°C° 0 mm 3 m/s 755 mmHg 59%
    01:00 +28°C° 0 mm 3 m/s 755 mmHg 60%
    02:00 +27°C° 0 mm 2 m/s 755 mmHg 62%
    03:00 +27°C° 0 mm 1 m/s 755 mmHg 63%
    04:00 +27°C° 0 mm 1 m/s 755 mmHg 61%
    05:00 +28°C° 0 mm 1 m/s 755 mmHg 59%
    06:00 +28°C° 0 mm 1 m/s 755 mmHg 57%
    07:00 +30°C° 0 mm 2 m/s 755 mmHg 49%
    08:00 +33°C° 0 mm 4 m/s 755 mmHg 41%
    09:00 +35°C° 0 mm 5 m/s 755 mmHg 33%
    10:00 +38°C° 0 mm 7 m/s 755 mmHg 31%
    11:00 +39°C° 0 mm 8 m/s 755 mmHg 29%
    12:00 +40°C° 0 mm 10 m/s 755 mmHg 27%
    13:00 +39°C° 0 mm 10 m/s 755 mmHg 28%
    14:00 +39°C° 0 mm 11 m/s 755 mmHg 28%
    15:00 +39°C° 0 mm 11 m/s 754 mmHg 29%
    16:00 +38°C° 0 mm 11 m/s 754 mmHg 30%
    17:00 +38°C° 0 mm 10 m/s 754 mmHg 32%
    18:00 +37°C° 0 mm 10 m/s 754 mmHg 33%
    19:00 +35°C° 0 mm 9 m/s 754 mmHg 36%
    20:00 +34°C° 0 mm 8 m/s 755 mmHg 39%
    21:00 +33°C° 0 mm 7 m/s 755 mmHg 41%
    22:00 +32°C° 0 mm 6 m/s 755 mmHg 44%
    23:00 +32°C° 0 mm 5 m/s 755 mmHg 47%

    23 Julho, Terça-feira

    Tempo Temperatura Precipitação Vento Pressão Humidade
    00:00 +30°C° 0 mm 4 m/s 754 mmHg 50%
    01:00 +29°C° 0 mm 3 m/s 754 mmHg 54%
    02:00 +28°C° 0 mm 3 m/s 754 mmHg 58%
    03:00 +27°C° 0 mm 3 m/s 754 mmHg 62%
    04:00 +28°C° 0 mm 3 m/s 755 mmHg 61%
    05:00 +28°C° 0 mm 3 m/s 755 mmHg 60%
    06:00 +28°C° 0 mm 3 m/s 755 mmHg 60%
    07:00 +30°C° 0 mm 3 m/s 755 mmHg 54%
    08:00 +31°C° 0 mm 2 m/s 755 mmHg 48%
    09:00 +34°C° 0 mm 2 m/s 755 mmHg 42%
    10:00 +35°C° 0 mm 2 m/s 754 mmHg 38%
    11:00 +37°C° 0 mm 2 m/s 754 mmHg 34%
    12:00 +38°C° 0 mm 2 m/s 754 mmHg 30%
    13:00 +40°C° 0 mm 4 m/s 753 mmHg 29%
    14:00 +40°C° 0 mm 6 m/s 753 mmHg 28%
    15:00 +40°C° 0 mm 8 m/s 752 mmHg 27%
    16:00 +39°C° 0 mm 8 m/s 752 mmHg 28%
    17:00 +38°C° 0 mm 9 m/s 752 mmHg 30%
    18:00 +37°C° 0 mm 9 m/s 752 mmHg 32%
    19:00 +34°C° 0 mm 8 m/s 753 mmHg 35%
    20:00 +33°C° 0 mm 7 m/s 753 mmHg 38%
    21:00 +32°C° 0 mm 6 m/s 753 mmHg 41%
    22:00 +30°C° 0 mm 5 m/s 753 mmHg 46%
    23:00 +29°C° 0 mm 4 m/s 753 mmHg 50%

    24 Julho, Quarta-feira

    Tempo Temperatura Precipitação Vento Pressão Humidade
    00:00 +28°C° 0 mm 3 m/s 753 mmHg 55%
    01:00 +28°C° 0 mm 3 m/s 753 mmHg 57%
    02:00 +27°C° 0 mm 3 m/s 753 mmHg 59%
    03:00 +27°C° 0 mm 2 m/s 753 mmHg 61%
    04:00 +27°C° 0 mm 2 m/s 753 mmHg 59%
    05:00 +28°C° 0 mm 2 m/s 753 mmHg 56%
    06:00 +28°C° 0 mm 2 m/s 753 mmHg 54%
    07:00 +30°C° 0 mm 2 m/s 753 mmHg 49%
    08:00 +31°C° 0 mm 2 m/s 753 mmHg 44%
    09:00 +33°C° 0 mm 1 m/s 753 mmHg 39%
    10:00 +35°C° 0 mm 1 m/s 753 mmHg 36%
    11:00 +36°C° 0 mm 1 m/s 752 mmHg 33%
    12:00 +37°C° 0 mm 1 m/s 752 mmHg 29%
    13:00 +39°C° 0 mm 3 m/s 752 mmHg 29%
    14:00 +40°C° 0 mm 5 m/s 751 mmHg 28%
    15:00 +40°C° 0 mm 7 m/s 751 mmHg 28%
    16:00 +38°C° 0 mm 7 m/s 751 mmHg 31%
    17:00 +36°C° 0 mm 7 m/s 751 mmHg 34%
    18:00 +34°C° 0 mm 7 m/s 751 mmHg 38%
    19:00 +33°C° 0 mm 6 m/s 751 mmHg 44%
    20:00 +30°C° 0 mm 5 m/s 752 mmHg 50%
    21:00 +29°C° 0 mm 4 m/s 752 mmHg 55%
    22:00 +28°C° 0 mm 3 m/s 752 mmHg 57%
    23:00 +28°C° 0 mm 2 m/s 752 mmHg 60%

    25 Julho, Quinta-feira

    Tempo Temperatura Precipitação Vento Pressão Humidade
    00:00 +27°C° 0 mm 1 m/s 752 mmHg 62%
    01:00 +27°C° 0 mm 1 m/s 752 mmHg 62%
    02:00 +27°C° 0 mm 1 m/s 752 mmHg 61%
    03:00 +27°C° 0 mm 1 m/s 752 mmHg 61%
    04:00 +27°C° 0 mm 1 m/s 752 mmHg 58%
    05:00 +28°C° 0 mm 1 m/s 752 mmHg 55%
    06:00 +29°C° 0 mm 1 m/s 752 mmHg 51%
    07:00 +31°C° 0 mm 1 m/s 753 mmHg 46%
    08:00 +32°C° 0 mm 1 m/s 753 mmHg 40%
    09:00 +34°C° 0 mm 1 m/s 753 mmHg 35%
    10:00 +36°C° 0 mm 2 m/s 753 mmHg 32%
    11:00 +38°C° 0 mm 2 m/s 752 mmHg 30%
    12:00 +39°C° 0 mm 3 m/s 752 mmHg 28%
    13:00 +40°C° 0 mm 4 m/s 752 mmHg 29%
    14:00 +40°C° 0 mm 6 m/s 751 mmHg 30%
    15:00 +40°C° 0 mm 7 m/s 751 mmHg 31%
    16:00 +38°C° 0 mm 7 m/s 751 mmHg 33%
    17:00 +36°C° 0 mm 7 m/s 751 mmHg 35%
    18:00 +35°C° 0 mm 7 m/s 751 mmHg 38%
    19:00 +33°C° 0 mm 6 m/s 751 mmHg 44%
    20:00 +30°C° 0 mm 5 m/s 751 mmHg 51%
    21:00 +29°C° 0 mm 4 m/s 752 mmHg 58%
    22:00 +28°C° 0 mm 4 m/s 752 mmHg 59%
    23:00 +28°C° 0 mm 3 m/s 751 mmHg 61%
    Mostrar mais